Year,Month,Day,Hour,Minute,Value (Times are PST for barometer in hPa)
2016,10,14,00,00,984.97
2016,10,14,00,01,985.00
2016,10,14,00,02,985.17
2016,10,14,00,03,985.10
2016,10,14,00,04,984.90
2016,10,14,00,05,984.93
2016,10,14,00,06,985.10
2016,10,14,00,07,985.27
2016,10,14,00,08,985.30
2016,10,14,00,09,985.24
2016,10,14,00,10,985.30
2016,10,14,00,11,985.30
2016,10,14,00,12,985.24
2016,10,14,00,13,985.44
2016,10,14,00,14,985.47
2016,10,14,00,15,985.41
2016,10,14,00,16,985.38
2016,10,14,00,17,985.51
2016,10,14,00,18,985.41
2016,10,14,00,19,985.44
2016,10,14,00,20,985.51
2016,10,14,00,21,985.37
2016,10,14,00,22,985.34
2016,10,14,00,23,985.30
2016,10,14,00,24,985.44
2016,10,14,00,25,985.37
2016,10,14,00,26,985.41
2016,10,14,00,27,985.44
2016,10,14,00,28,985.54
2016,10,14,00,29,985.64
2016,10,14,00,30,985.68
2016,10,14,00,31,985.74
2016,10,14,00,32,985.64
2016,10,14,00,33,985.71
2016,10,14,00,34,985.85
2016,10,14,00,35,985.88
2016,10,14,00,36,985.88
2016,10,14,00,37,985.91
2016,10,14,00,38,985.91
2016,10,14,00,39,985.85
2016,10,14,00,40,985.95
2016,10,14,00,41,985.91
2016,10,14,00,42,985.88
2016,10,14,00,43,986.05
2016,10,14,00,44,986.12
2016,10,14,00,45,986.15
2016,10,14,00,46,986.12
2016,10,14,00,47,986.06
2016,10,14,00,48,986.17
2016,10,14,00,49,986.02
2016,10,14,00,50,986.08
2016,10,14,00,51,986.12
2016,10,14,00,52,986.12
2016,10,14,00,53,986.12
2016,10,14,00,54,986.08
2016,10,14,00,55,986.14
2016,10,14,00,56,986.02
2016,10,14,00,57,986.05
2016,10,14,00,58,986.02
2016,10,14,00,59,985.98
2016,10,14,01,00,986.02
2016,10,14,01,01,986.08
2016,10,14,01,02,986.02
2016,10,14,01,03,986.08
2016,10,14,01,04,986.03
2016,10,14,01,05,986.22
2016,10,14,01,06,986.22
2016,10,14,01,07,986.22
2016,10,14,01,08,986.12
2016,10,14,01,09,986.12
2016,10,14,01,10,986.13
2016,10,14,01,11,986.25
2016,10,14,01,12,986.29
2016,10,14,01,13,986.22
2016,10,14,01,14,986.35
2016,10,14,01,15,986.25
2016,10,14,01,16,986.25
2016,10,14,01,17,986.32
2016,10,14,01,18,986.25
2016,10,14,01,19,986.22
2016,10,14,01,20,986.25
2016,10,14,01,21,986.22
2016,10,14,01,22,986.18
2016,10,14,01,23,986.42
2016,10,14,01,24,986.32
2016,10,14,01,25,986.18
2016,10,14,01,26,986.12
2016,10,14,01,27,986.22
2016,10,14,01,28,986.29
2016,10,14,01,29,986.18
2016,10,14,01,30,986.32
2016,10,14,01,31,986.22
2016,10,14,01,32,986.32
2016,10,14,01,33,986.29
2016,10,14,01,34,986.22
2016,10,14,01,35,986.35
2016,10,14,01,36,986.42
2016,10,14,01,37,986.35
2016,10,14,01,38,986.52
2016,10,14,01,39,986.56
2016,10,14,01,40,986.59
2016,10,14,01,41,986.56
2016,10,14,01,42,986.59
2016,10,14,01,43,986.83
2016,10,14,01,44,986.74
2016,10,14,01,45,986.86
2016,10,14,01,46,986.96
2016,10,14,01,47,986.93
2016,10,14,01,48,987.03
2016,10,14,01,49,986.96
2016,10,14,01,50,986.96
2016,10,14,01,51,987.10
2016,10,14,01,52,987.06
2016,10,14,01,53,987.10
2016,10,14,01,54,987.13
2016,10,14,01,55,987.34
2016,10,14,01,56,987.44
2016,10,14,01,57,987.44
2016,10,14,01,58,987.47
2016,10,14,01,59,987.44
2016,10,14,02,00,987.40
2016,10,14,02,01,987.50
2016,10,14,02,02,987.37
2016,10,14,02,03,987.44
2016,10,14,02,04,987.54
2016,10,14,02,05,987.54
2016,10,14,02,06,987.64
2016,10,14,02,07,987.61
2016,10,14,02,08,987.64
2016,10,14,02,09,987.57
2016,10,14,02,10,987.51
2016,10,14,02,11,987.51
2016,10,14,02,12,987.61
2016,10,14,02,13,987.57
2016,10,14,02,14,987.61
2016,10,14,02,15,987.61
2016,10,14,02,16,987.67
2016,10,14,02,17,987.64
2016,10,14,02,18,987.57
2016,10,14,02,19,987.54
2016,10,14,02,20,987.51
2016,10,14,02,21,987.54
2016,10,14,02,22,987.61
2016,10,14,02,23,987.64
2016,10,14,02,24,987.57
2016,10,14,02,25,987.61
2016,10,14,02,26,987.54
2016,10,14,02,27,987.54
2016,10,14,02,28,987.51
2016,10,14,02,29,987.51
2016,10,14,02,30,987.64
2016,10,14,02,31,987.71
2016,10,14,02,32,987.74
2016,10,14,02,33,987.78
2016,10,14,02,34,987.74
2016,10,14,02,35,987.81
2016,10,14,02,36,987.78
2016,10,14,02,37,987.61
2016,10,14,02,38,987.64
2016,10,14,02,39,987.61
2016,10,14,02,40,987.67
2016,10,14,02,41,987.57
2016,10,14,02,42,987.71
2016,10,14,02,43,987.64
2016,10,14,02,44,987.61
2016,10,14,02,45,987.54
2016,10,14,02,46,987.54
2016,10,14,02,47,987.57
2016,10,14,02,48,987.61
2016,10,14,02,49,987.67
2016,10,14,02,50,987.64
2016,10,14,02,51,987.71
2016,10,14,02,52,987.61
2016,10,14,02,53,987.71
2016,10,14,02,54,987.88
2016,10,14,02,55,987.91
2016,10,14,02,56,987.91
2016,10,14,02,57,987.84
2016,10,14,02,58,987.88
2016,10,14,02,59,987.88
2016,10,14,03,00,987.88
2016,10,14,03,01,987.98
2016,10,14,03,02,987.95
2016,10,14,03,03,988.01
2016,10,14,03,04,988.05
2016,10,14,03,05,988.01
2016,10,14,03,06,988.01
2016,10,14,03,07,987.98
2016,10,14,03,08,988.01
2016,10,14,03,09,987.97
2016,10,14,03,10,987.84
2016,10,14,03,11,987.81
2016,10,14,03,12,987.64
2016,10,14,03,13,987.74
2016,10,14,03,14,987.68
2016,10,14,03,15,987.85
2016,10,14,03,16,988.05
2016,10,14,03,17,988.08
2016,10,14,03,18,988.11
2016,10,14,03,19,988.08
2016,10,14,03,20,988.15
2016,10,14,03,21,988.15
2016,10,14,03,22,988.08
2016,10,14,03,23,988.15
2016,10,14,03,24,988.12
2016,10,14,03,25,988.25
2016,10,14,03,26,988.11
2016,10,14,03,27,988.11
2016,10,14,03,28,988.05
2016,10,14,03,29,988.11
2016,10,14,03,30,988.22
2016,10,14,03,31,988.39
2016,10,14,03,32,988.45
2016,10,14,03,33,988.52
2016,10,14,03,34,988.66
2016,10,14,03,35,988.66
2016,10,14,03,36,988.62
2016,10,14,03,37,988.66
2016,10,14,03,38,988.69
2016,10,14,03,39,988.76
2016,10,14,03,40,988.76
2016,10,14,03,41,988.76
2016,10,14,03,42,988.72
2016,10,14,03,43,988.72
2016,10,14,03,44,988.83
2016,10,14,03,45,988.83
2016,10,14,03,46,988.83
2016,10,14,03,47,988.79
2016,10,14,03,48,988.72
2016,10,14,03,49,988.76
2016,10,14,03,50,988.66
2016,10,14,03,51,988.66
2016,10,14,03,52,988.62
2016,10,14,03,53,988.59
2016,10,14,03,54,988.52
2016,10,14,03,55,988.49
2016,10,14,03,56,988.49
2016,10,14,03,57,988.45
2016,10,14,03,58,988.42
2016,10,14,03,59,988.35
2016,10,14,04,00,988.32
2016,10,14,04,01,988.26
2016,10,14,04,02,988.35
2016,10,14,04,03,988.42
2016,10,14,04,04,988.42
2016,10,14,04,05,988.34
2016,10,14,04,06,988.25
2016,10,14,04,07,988.22
2016,10,14,04,08,988.25
2016,10,14,04,09,988.25
2016,10,14,04,10,988.22
2016,10,14,04,11,988.28
2016,10,14,04,12,988.35
2016,10,14,04,13,988.42
2016,10,14,04,14,988.45
2016,10,14,04,15,988.52
2016,10,14,04,16,988.52
2016,10,14,04,17,988.55
2016,10,14,04,18,988.59
2016,10,14,04,19,988.66
2016,10,14,04,20,988.69
2016,10,14,04,21,988.72
2016,10,14,04,22,988.72
2016,10,14,04,23,988.72
2016,10,14,04,24,988.69
2016,10,14,04,25,988.66
2016,10,14,04,26,988.66
2016,10,14,04,27,988.66
2016,10,14,04,28,988.62
2016,10,14,04,29,988.69
2016,10,14,04,30,988.76
2016,10,14,04,31,988.79
2016,10,14,04,32,988.89
2016,10,14,04,33,988.86
2016,10,14,04,34,988.86
2016,10,14,04,35,988.93
2016,10,14,04,36,988.96
2016,10,14,04,37,988.93
2016,10,14,04,38,988.83
2016,10,14,04,39,988.79
2016,10,14,04,40,988.76
2016,10,14,04,41,988.72
2016,10,14,04,42,988.72
2016,10,14,04,43,988.76
2016,10,14,04,44,988.79
2016,10,14,04,45,988.83
2016,10,14,04,46,988.79
2016,10,14,04,47,988.69
2016,10,14,04,48,988.59
2016,10,14,04,49,988.52
2016,10,14,04,50,988.45
2016,10,14,04,51,988.42
2016,10,14,04,52,988.45
2016,10,14,04,53,988.42
2016,10,14,04,54,988.49
2016,10,14,04,55,988.49
2016,10,14,04,56,988.55
2016,10,14,04,57,988.59
2016,10,14,04,58,988.66
2016,10,14,04,59,988.69
2016,10,14,05,00,988.69
2016,10,14,05,01,988.69
2016,10,14,05,02,988.69
2016,10,14,05,03,988.79
2016,10,14,05,04,988.76
2016,10,14,05,05,988.76
2016,10,14,05,06,988.79
2016,10,14,05,07,988.76
2016,10,14,05,08,988.69
2016,10,14,05,09,988.62
2016,10,14,05,10,988.62
2016,10,14,05,11,988.59
2016,10,14,05,12,988.52
2016,10,14,05,13,988.49
2016,10,14,05,14,988.49
2016,10,14,05,15,988.49
2016,10,14,05,16,988.52
2016,10,14,05,17,988.55
2016,10,14,05,18,988.54
2016,10,14,05,19,988.45
2016,10,14,05,20,988.45
2016,10,14,05,21,988.39
2016,10,14,05,22,988.42
2016,10,14,05,23,988.49
2016,10,14,05,24,988.42
2016,10,14,05,25,988.39
2016,10,14,05,26,988.25
2016,10,14,05,27,988.25
2016,10,14,05,28,988.25
2016,10,14,05,29,988.32
2016,10,14,05,30,988.39
2016,10,14,05,31,988.35
2016,10,14,05,32,988.35
2016,10,14,05,33,988.32
2016,10,14,05,34,988.35
2016,10,14,05,35,988.28
2016,10,14,05,36,988.25
2016,10,14,05,37,988.22
2016,10,14,05,38,988.18
2016,10,14,05,39,988.11
2016,10,14,05,40,988.05
2016,10,14,05,41,988.08
2016,10,14,05,42,988.11
2016,10,14,05,43,988.15
2016,10,14,05,44,988.15
2016,10,14,05,45,988.15
2016,10,14,05,46,988.22
2016,10,14,05,47,988.28
2016,10,14,05,48,988.39
2016,10,14,05,49,988.49
2016,10,14,05,50,988.55
2016,10,14,05,51,988.62
2016,10,14,05,52,988.69
2016,10,14,05,53,988.59
2016,10,14,05,54,988.59
2016,10,14,05,55,988.59
2016,10,14,05,56,988.62
2016,10,14,05,57,988.55
2016,10,14,05,58,988.55
2016,10,14,05,59,988.66
2016,10,14,06,00,988.72
2016,10,14,06,01,988.76
2016,10,14,06,02,988.86
2016,10,14,06,03,988.89
2016,10,14,06,04,988.83
2016,10,14,06,05,988.79
2016,10,14,06,06,988.86
2016,10,14,06,07,988.83
2016,10,14,06,08,988.83
2016,10,14,06,09,988.72
2016,10,14,06,10,988.62
2016,10,14,06,11,988.66
2016,10,14,06,12,988.62
2016,10,14,06,13,988.62
2016,10,14,06,14,988.52
2016,10,14,06,15,988.49
2016,10,14,06,16,988.45
2016,10,14,06,17,988.42
2016,10,14,06,18,988.45
2016,10,14,06,19,988.45
2016,10,14,06,20,988.45
2016,10,14,06,21,988.42
2016,10,14,06,22,988.42
2016,10,14,06,23,988.39
2016,10,14,06,24,988.35
2016,10,14,06,25,988.35
2016,10,14,06,26,988.32
2016,10,14,06,27,988.35
2016,10,14,06,28,988.28
2016,10,14,06,29,988.28
2016,10,14,06,30,988.28
2016,10,14,06,31,988.28
2016,10,14,06,32,988.32
2016,10,14,06,33,988.35
2016,10,14,06,34,988.35
2016,10,14,06,35,988.28
2016,10,14,06,36,988.25
2016,10,14,06,37,988.28
2016,10,14,06,38,988.32
2016,10,14,06,39,988.35
2016,10,14,06,40,988.35
2016,10,14,06,41,988.35
2016,10,14,06,42,988.28
2016,10,14,06,43,988.32
2016,10,14,06,44,988.28
2016,10,14,06,45,988.28
2016,10,14,06,46,988.22
2016,10,14,06,47,988.22
2016,10,14,06,48,988.18
2016,10,14,06,49,988.15
2016,10,14,06,50,988.08
2016,10,14,06,51,988.11
2016,10,14,06,52,988.08
2016,10,14,06,53,988.05
2016,10,14,06,54,987.98
2016,10,14,06,55,987.88
2016,10,14,06,56,987.84
2016,10,14,06,57,987.84
2016,10,14,06,58,987.88
2016,10,14,06,59,987.97
2016,10,14,07,00,988.22
2016,10,14,07,01,988.32
2016,10,14,07,02,988.35
2016,10,14,07,03,988.39
2016,10,14,07,04,988.39
2016,10,14,07,05,988.32
2016,10,14,07,06,988.25
2016,10,14,07,07,988.15
2016,10,14,07,08,988.08
2016,10,14,07,09,988.05
2016,10,14,07,10,988.05
2016,10,14,07,11,988.11
2016,10,14,07,12,988.18
2016,10,14,07,13,988.28
2016,10,14,07,14,988.32
2016,10,14,07,15,988.22
2016,10,14,07,16,988.15
2016,10,14,07,17,988.18
2016,10,14,07,18,988.11
2016,10,14,07,19,988.08
2016,10,14,07,20,988.01
2016,10,14,07,21,987.95
2016,10,14,07,22,987.95
2016,10,14,07,23,987.98
2016,10,14,07,24,987.95
2016,10,14,07,25,987.95
2016,10,14,07,26,987.95
2016,10,14,07,27,987.98
2016,10,14,07,28,987.98
2016,10,14,07,29,988.01
2016,10,14,07,30,988.01
2016,10,14,07,31,987.98
2016,10,14,07,32,987.88
2016,10,14,07,33,987.81
2016,10,14,07,34,987.74
2016,10,14,07,35,987.74
2016,10,14,07,36,987.84
2016,10,14,07,37,987.88
2016,10,14,07,38,987.91
2016,10,14,07,39,988.15
2016,10,14,07,40,988.18
2016,10,14,07,41,988.18
2016,10,14,07,42,988.18
2016,10,14,07,43,988.15
2016,10,14,07,44,988.11
2016,10,14,07,45,988.08
2016,10,14,07,46,988.05
2016,10,14,07,47,988.01
2016,10,14,07,48,988.08
2016,10,14,07,49,988.25
2016,10,14,07,50,988.45
2016,10,14,07,51,988.66
2016,10,14,07,52,988.86
2016,10,14,07,53,988.96
2016,10,14,07,54,989.00
2016,10,14,07,55,989.00
2016,10,14,07,56,988.96
2016,10,14,07,57,989.03
2016,10,14,07,58,988.96
2016,10,14,07,59,988.78
2016,10,14,08,00,988.66
2016,10,14,08,01,988.52
2016,10,14,08,02,988.49
2016,10,14,08,03,988.45
2016,10,14,08,04,988.35
2016,10,14,08,05,988.25
2016,10,14,08,06,988.18
2016,10,14,08,07,988.11
2016,10,14,08,08,988.04
2016,10,14,08,09,987.95
2016,10,14,08,10,987.95
2016,10,14,08,11,987.95
2016,10,14,08,12,987.91
2016,10,14,08,13,987.98
2016,10,14,08,14,988.01
2016,10,14,08,15,988.11
2016,10,14,08,16,988.18
2016,10,14,08,17,988.35
2016,10,14,08,18,988.51
2016,10,14,08,19,988.55
2016,10,14,08,20,988.59
2016,10,14,08,21,988.52
2016,10,14,08,22,988.52
2016,10,14,08,23,988.52
2016,10,14,08,24,988.49
2016,10,14,08,25,988.45
2016,10,14,08,26,988.45
2016,10,14,08,27,988.35
2016,10,14,08,28,988.35
2016,10,14,08,29,988.39
2016,10,14,08,30,988.35
2016,10,14,08,31,988.35
2016,10,14,08,32,988.35
2016,10,14,08,33,988.49
2016,10,14,08,34,988.45
2016,10,14,08,35,988.39
2016,10,14,08,36,988.28
2016,10,14,08,37,988.25
2016,10,14,08,38,988.18
2016,10,14,08,39,988.15
2016,10,14,08,40,988.15
2016,10,14,08,41,988.25
2016,10,14,08,42,988.35
2016,10,14,08,43,988.39
2016,10,14,08,44,988.39
2016,10,14,08,45,988.35
2016,10,14,08,46,988.39
2016,10,14,08,47,988.32
2016,10,14,08,48,988.28
2016,10,14,08,49,988.18
2016,10,14,08,50,988.15
2016,10,14,08,51,988.08
2016,10,14,08,52,988.08
2016,10,14,08,53,988.08
2016,10,14,08,54,988.01
2016,10,14,08,55,987.95
2016,10,14,08,56,987.95
2016,10,14,08,57,987.88
2016,10,14,08,58,987.84
2016,10,14,08,59,987.95
2016,10,14,09,00,987.98
2016,10,14,09,01,988.01
2016,10,14,09,02,987.98
2016,10,14,09,03,987.98
2016,10,14,09,04,988.05
2016,10,14,09,05,988.15
2016,10,14,09,06,988.18
2016,10,14,09,07,988.22
2016,10,14,09,08,988.18
2016,10,14,09,09,988.10
2016,10,14,09,10,987.95
2016,10,14,09,11,987.98
2016,10,14,09,12,987.91
2016,10,14,09,13,987.95
2016,10,14,09,14,988.01
2016,10,14,09,15,988.01
2016,10,14,09,16,988.08
2016,10,14,09,17,988.05
2016,10,14,09,18,988.01
2016,10,14,09,19,987.98
2016,10,14,09,20,987.84
2016,10,14,09,21,987.81
2016,10,14,09,22,987.81
2016,10,14,09,23,987.88
2016,10,14,09,24,987.91
2016,10,14,09,25,987.95
2016,10,14,09,26,987.84
2016,10,14,09,27,987.91
2016,10,14,09,28,987.88
2016,10,14,09,29,987.91
2016,10,14,09,30,987.98
2016,10,14,09,31,987.95
2016,10,14,09,32,987.95
2016,10,14,09,33,987.95
2016,10,14,09,34,987.91
2016,10,14,09,35,987.95
2016,10,14,09,36,987.88
2016,10,14,09,37,987.84
2016,10,14,09,38,987.81
2016,10,14,09,39,987.81
2016,10,14,09,40,987.88
2016,10,14,09,41,987.95
2016,10,14,09,42,987.98
2016,10,14,09,43,988.01
2016,10,14,09,44,988.05
2016,10,14,09,45,988.08
2016,10,14,09,46,988.18
2016,10,14,09,47,988.15
2016,10,14,09,48,988.11
2016,10,14,09,49,987.98
2016,10,14,09,50,987.98
2016,10,14,09,51,987.95
2016,10,14,09,52,988.05
2016,10,14,09,53,987.98
2016,10,14,09,54,988.01
2016,10,14,09,55,987.98
2016,10,14,09,56,988.01
2016,10,14,09,57,987.95
2016,10,14,09,58,987.98
2016,10,14,09,59,987.95
2016,10,14,10,00,987.95
2016,10,14,10,01,987.94
2016,10,14,10,02,987.81
2016,10,14,10,03,987.78
2016,10,14,10,04,987.67
2016,10,14,10,05,987.61
2016,10,14,10,06,987.57
2016,10,14,10,07,987.57
2016,10,14,10,08,987.57
2016,10,14,10,09,987.54
2016,10,14,10,10,987.54
2016,10,14,10,11,987.51
2016,10,14,10,12,987.44
2016,10,14,10,13,987.47
2016,10,14,10,14,987.44
2016,10,14,10,15,987.37
2016,10,14,10,16,987.30
2016,10,14,10,17,987.34
2016,10,14,10,18,987.40
2016,10,14,10,19,987.44
2016,10,14,10,20,987.44
2016,10,14,10,21,987.44
2016,10,14,10,22,987.44
2016,10,14,10,23,987.44
2016,10,14,10,24,987.44
2016,10,14,10,25,987.47
2016,10,14,10,26,987.51
2016,10,14,10,27,987.51
2016,10,14,10,28,987.47
2016,10,14,10,29,987.47
2016,10,14,10,30,987.40
2016,10,14,10,31,987.34
2016,10,14,10,32,987.37
2016,10,14,10,33,987.34
2016,10,14,10,34,987.30
2016,10,14,10,35,987.30
2016,10,14,10,36,987.30
2016,10,14,10,37,987.23
2016,10,14,10,38,987.17
2016,10,14,10,39,987.03
2016,10,14,10,40,987.00
2016,10,14,10,41,987.00
2016,10,14,10,42,987.10
2016,10,14,10,43,987.06
2016,10,14,10,44,986.96
2016,10,14,10,45,986.93
2016,10,14,10,46,986.86
2016,10,14,10,47,986.90
2016,10,14,10,48,987.00
2016,10,14,10,49,987.06
2016,10,14,10,50,987.13
2016,10,14,10,51,987.12
2016,10,14,10,52,987.00
2016,10,14,10,53,987.00
2016,10,14,10,54,986.96
2016,10,14,10,55,986.93
2016,10,14,10,56,986.86
2016,10,14,10,57,986.86
2016,10,14,10,58,986.86
2016,10,14,10,59,986.73
2016,10,14,11,00,986.76
2016,10,14,11,01,986.79
2016,10,14,11,02,986.76
2016,10,14,11,03,986.83
2016,10,14,11,04,986.79
2016,10,14,11,05,986.79
2016,10,14,11,06,986.83
2016,10,14,11,07,986.83
2016,10,14,11,08,986.69
2016,10,14,11,09,986.73
2016,10,14,11,10,986.76
2016,10,14,11,11,986.66
2016,10,14,11,12,986.56
2016,10,14,11,13,986.62
2016,10,14,11,14,986.59
2016,10,14,11,15,986.59
2016,10,14,11,16,986.66
2016,10,14,11,17,986.66
2016,10,14,11,18,986.56
2016,10,14,11,19,986.56
2016,10,14,11,20,986.49
2016,10,14,11,21,986.46
2016,10,14,11,22,986.56
2016,10,14,11,23,986.59
2016,10,14,11,24,986.52
2016,10,14,11,25,986.49
2016,10,14,11,26,986.52
2016,10,14,11,27,986.56
2016,10,14,11,28,986.62
2016,10,14,11,29,986.59
2016,10,14,11,30,986.56
2016,10,14,11,31,986.62
2016,10,14,11,32,986.62
2016,10,14,11,33,986.62
2016,10,14,11,34,986.69
2016,10,14,11,35,986.66
2016,10,14,11,36,986.66
2016,10,14,11,37,986.73
2016,10,14,11,38,986.73
2016,10,14,11,39,986.83
2016,10,14,11,40,986.83
2016,10,14,11,41,986.76
2016,10,14,11,42,986.83
2016,10,14,11,43,986.76
2016,10,14,11,44,986.79
2016,10,14,11,45,986.76
2016,10,14,11,46,986.83
2016,10,14,11,47,986.76
2016,10,14,11,48,986.76
2016,10,14,11,49,986.83
2016,10,14,11,50,986.76
2016,10,14,11,51,986.79
2016,10,14,11,52,986.70
2016,10,14,11,53,986.69
2016,10,14,11,54,986.69
2016,10,14,11,55,986.53
2016,10,14,11,56,986.42
2016,10,14,11,57,986.46
2016,10,14,11,58,986.49
2016,10,14,11,59,986.46
2016,10,14,12,00,986.42
2016,10,14,12,01,986.35
2016,10,14,12,02,986.39
2016,10,14,12,03,986.39
2016,10,14,12,04,986.39
2016,10,14,12,05,986.35
2016,10,14,12,06,986.39
2016,10,14,12,07,986.39
2016,10,14,12,08,986.39
2016,10,14,12,09,986.48
2016,10,14,12,10,986.42
2016,10,14,12,11,986.39
2016,10,14,12,12,986.46
2016,10,14,12,13,986.42
2016,10,14,12,14,986.33
2016,10,14,12,15,986.25
2016,10,14,12,16,986.25
2016,10,14,12,17,986.18
2016,10,14,12,18,986.25
2016,10,14,12,19,986.15
2016,10,14,12,20,986.15
2016,10,14,12,21,986.18
2016,10,14,12,22,986.18
2016,10,14,12,23,986.12
2016,10,14,12,24,986.08
2016,10,14,12,25,986.12
2016,10,14,12,26,986.12
2016,10,14,12,27,985.88
2016,10,14,12,28,985.95
2016,10,14,12,29,985.98
2016,10,14,12,30,986.05
2016,10,14,12,31,985.91
2016,10,14,12,32,985.91
2016,10,14,12,33,985.91
2016,10,14,12,34,985.95
2016,10,14,12,35,986.02
2016,10,14,12,36,985.98
2016,10,14,12,37,985.85
2016,10,14,12,38,985.95
2016,10,14,12,39,985.78
2016,10,14,12,40,985.71
2016,10,14,12,41,985.95
2016,10,14,12,42,986.02
2016,10,14,12,43,985.88
2016,10,14,12,44,985.91
2016,10,14,12,45,985.81
2016,10,14,12,46,985.91
2016,10,14,12,47,985.88
2016,10,14,12,48,985.81
2016,10,14,12,49,985.78
2016,10,14,12,50,985.85
2016,10,14,12,51,985.91
2016,10,14,12,52,985.95
2016,10,14,12,53,985.84
2016,10,14,12,54,985.74
2016,10,14,12,55,985.91
2016,10,14,12,56,985.85
2016,10,14,12,57,985.88
2016,10,14,12,58,985.95
2016,10,14,12,59,985.88
2016,10,14,13,00,985.78
2016,10,14,13,01,985.72
2016,10,14,13,02,985.74
2016,10,14,13,03,985.68
2016,10,14,13,04,985.71
2016,10,14,13,05,985.68
2016,10,14,13,06,985.71
2016,10,14,13,07,985.72
2016,10,14,13,08,985.81
2016,10,14,13,09,985.85
2016,10,14,13,10,985.74
2016,10,14,13,11,985.74
2016,10,14,13,12,985.78
2016,10,14,13,13,985.98
2016,10,14,13,14,986.03
2016,10,14,13,15,986.18
2016,10,14,13,16,986.12
2016,10,14,13,17,986.15
2016,10,14,13,18,986.31
2016,10,14,13,19,986.32
2016,10,14,13,20,986.05
2016,10,14,13,21,986.31
2016,10,14,13,22,986.52
2016,10,14,13,23,986.46
2016,10,14,13,24,986.42
2016,10,14,13,25,986.56
2016,10,14,13,26,986.59
2016,10,14,13,27,986.49
2016,10,14,13,28,986.52
2016,10,14,13,29,986.52
2016,10,14,13,30,986.47
2016,10,14,13,31,986.59
2016,10,14,13,32,986.79
2016,10,14,13,33,987.13
2016,10,14,13,34,987.03
2016,10,14,13,35,986.93
2016,10,14,13,36,986.93
2016,10,14,13,37,987.06
2016,10,14,13,38,986.93
2016,10,14,13,39,986.86
2016,10,14,13,40,986.93
2016,10,14,13,41,986.86
2016,10,14,13,42,987.00
2016,10,14,13,43,987.17
2016,10,14,13,44,987.13
2016,10,14,13,45,987.30
2016,10,14,13,46,987.34
2016,10,14,13,47,987.10
2016,10,14,13,48,987.17
2016,10,14,13,49,987.20
2016,10,14,13,50,987.23
2016,10,14,13,51,987.23
2016,10,14,13,52,987.34
2016,10,14,13,53,987.37
2016,10,14,13,54,987.51
2016,10,14,13,55,987.57
2016,10,14,13,56,987.44
2016,10,14,13,57,987.51
2016,10,14,13,58,987.51
2016,10,14,13,59,987.54
2016,10,14,14,00,987.57
2016,10,14,14,01,987.57
2016,10,14,14,02,987.61
2016,10,14,14,03,987.61
2016,10,14,14,04,987.64
2016,10,14,14,05,987.80
2016,10,14,14,06,987.81
2016,10,14,14,07,987.98
2016,10,14,14,08,987.91
2016,10,14,14,09,987.95
2016,10,14,14,10,988.05
2016,10,14,14,11,988.05
2016,10,14,14,12,988.15
2016,10,14,14,13,988.01
2016,10,14,14,14,988.08
2016,10,14,14,15,988.15
2016,10,14,14,16,988.11
2016,10,14,14,17,988.15
2016,10,14,14,18,988.18
2016,10,14,14,19,988.25
2016,10,14,14,20,988.18
2016,10,14,14,21,988.22
2016,10,14,14,22,988.35
2016,10,14,14,23,988.35
2016,10,14,14,24,988.35
2016,10,14,14,25,988.36
2016,10,14,14,26,988.55
2016,10,14,14,27,988.39
2016,10,14,14,28,988.54
2016,10,14,14,29,988.62
2016,10,14,14,30,988.59
2016,10,14,14,31,988.52
2016,10,14,14,32,988.49
2016,10,14,14,33,988.79
2016,10,14,14,34,988.66
2016,10,14,14,35,988.69
2016,10,14,14,36,988.72
2016,10,14,14,37,988.79
2016,10,14,14,38,988.83
2016,10,14,14,39,988.96
2016,10,14,14,40,989.07
2016,10,14,14,41,989.23
2016,10,14,14,42,989.13
2016,10,14,14,43,989.20
2016,10,14,14,44,989.20
2016,10,14,14,45,989.10
2016,10,14,14,46,989.23
2016,10,14,14,47,989.27
2016,10,14,14,48,989.37
2016,10,14,14,49,989.33
2016,10,14,14,50,989.23
2016,10,14,14,51,989.30
2016,10,14,14,52,989.30
2016,10,14,14,53,989.46
2016,10,14,14,54,989.40
2016,10,14,14,55,989.40
2016,10,14,14,56,989.54
2016,10,14,14,57,989.54
2016,10,14,14,58,989.67
2016,10,14,14,59,989.67
2016,10,14,15,00,989.74
2016,10,14,15,01,989.87
2016,10,14,15,02,989.67
2016,10,14,15,03,989.77
2016,10,14,15,04,989.81
2016,10,14,15,05,989.72
2016,10,14,15,06,989.77
2016,10,14,15,07,989.81
2016,10,14,15,08,990.00
2016,10,14,15,09,990.08
2016,10,14,15,10,990.08
2016,10,14,15,11,990.08
2016,10,14,15,12,990.11
2016,10,14,15,13,990.25
2016,10,14,15,14,990.21
2016,10,14,15,15,990.42
2016,10,14,15,16,990.28
2016,10,14,15,17,990.49
2016,10,14,15,18,990.35
2016,10,14,15,19,990.38
2016,10,14,15,20,990.42
2016,10,14,15,21,990.58
2016,10,14,15,22,990.55
2016,10,14,15,23,990.45
2016,10,14,15,24,990.72
2016,10,14,15,25,990.79
2016,10,14,15,26,990.76
2016,10,14,15,27,990.76
2016,10,14,15,28,990.79
2016,10,14,15,29,990.76
2016,10,14,15,30,990.96
2016,10,14,15,31,990.89
2016,10,14,15,32,991.31
2016,10,14,15,33,990.72
2016,10,14,15,34,990.86
2016,10,14,15,35,991.03
2016,10,14,15,36,991.19
2016,10,14,15,37,991.03
2016,10,14,15,38,990.99
2016,10,14,15,39,991.09
2016,10,14,15,40,991.23
2016,10,14,15,41,990.97
2016,10,14,15,42,991.37
2016,10,14,15,43,991.33
2016,10,14,15,44,991.40
2016,10,14,15,45,991.57
2016,10,14,15,46,991.47
2016,10,14,15,47,991.53
2016,10,14,15,48,991.57
2016,10,14,15,49,991.69
2016,10,14,15,50,991.74
2016,10,14,15,51,991.74
2016,10,14,15,52,991.64
2016,10,14,15,53,991.84
2016,10,14,15,54,991.70
2016,10,14,15,55,991.70
2016,10,14,15,56,991.84
2016,10,14,15,57,991.87
2016,10,14,15,58,991.81
2016,10,14,15,59,991.98
2016,10,14,16,00,991.84
2016,10,14,16,01,991.91
2016,10,14,16,02,991.94
2016,10,14,16,03,992.14
2016,10,14,16,04,992.08
2016,10,14,16,05,991.84
2016,10,14,16,06,992.11
2016,10,14,16,07,991.91
2016,10,14,16,08,991.98
2016,10,14,16,09,992.14
2016,10,14,16,10,992.08
2016,10,14,16,11,992.14
2016,10,14,16,12,992.11
2016,10,14,16,13,991.98
2016,10,14,16,14,992.11
2016,10,14,16,15,991.94
2016,10,14,16,16,992.10
2016,10,14,16,17,992.18
2016,10,14,16,18,992.31
2016,10,14,16,19,992.24
2016,10,14,16,20,992.14
2016,10,14,16,21,992.11
2016,10,14,16,22,992.18
2016,10,14,16,23,992.18
2016,10,14,16,24,992.35
2016,10,14,16,25,992.45
2016,10,14,16,26,992.38
2016,10,14,16,27,992.45
2016,10,14,16,28,992.54
2016,10,14,16,29,992.48
2016,10,14,16,30,992.42
2016,10,14,16,31,992.58
2016,10,14,16,32,992.62
2016,10,14,16,33,992.65
2016,10,14,16,34,992.79
2016,10,14,16,35,992.58
2016,10,14,16,36,992.72